Flag for Kazakhstan Weather past 2 weeks in Shymkent, Kazakhstan

Now
32 °F

Fog.


Feels Like: 32 °F
Forecast: 27 / 32 °F
Wind: 1 mph from Northwest

Location: Shymkent Airport

Current Time: Feb 1, 2015 at 3:16:25 AM

Latest Report: Feb 1, 2015 at 2:30 AM


Visibility: 0 mi

Pressure: 29.89 "Hg

Humidity: 100%

Dew point: 32 °F

Location of ShymkentLocation

Historic Weather in Shymkent — Graph

°F

Shymkent temperature yesterday

Maximum temperature yesterday: 45 °F (at 12:00 PM)
Minimum temperature yesterday: 34 °F (at 8:30 PM)
Average temperature yesterday: 40 °F

Past Weeks' High & Low Weather Summary

 TemperatureHumidityPressure
High57 °F (Jan 17, 3:30 PM)100% (Jan 18, 5:30 AM)30.63 "Hg (Jan 18, 5:30 AM)
Low3 °F (Jan 25, 9:30 PM)40% (Jan 29, 2:30 PM)29.89 "Hg (Feb 1, 12:00 AM)
Average25 °F86%30.27 "Hg
* Reported Jan 17 2:00 AM — Feb 1 2:00 AM, Shymkent, Weather by CustomWeather, © 2014

Note: Actual official high and low records may vary slightly from our data, if they occured in-between our weather recording intervals... More about our weather records

Advertising

Shymkent weather history for previous 24 hours

 ConditionsComfort  
Time TempWeatherWind HumidityBarometerVisibility
2:00 AM
Feb 1
32 °FIce fog.1 mph100%29.89 "Hg1 mi
1:30 AM32 °FIce fog.1 mph100%29.89 "Hg1 mi
1:00 AM32 °FIce fog.No wind100%29.89 "Hg1 mi
12:30 AM32 °FIce fog.1 mph100%29.89 "Hg1 mi
12:00 AM34 °FFog.No wind100%29.89 "Hg1 mi
11:30 PM
Jan 31
34 °FFog.No wind93%29.92 "Hg3 mi
11:00 PM36 °FFog.No wind87%29.92 "Hg3 mi
10:30 PM36 °FFog.No wind87%29.92 "Hg3 mi
10:00 PM36 °FFog.1 mph87%29.92 "Hg3 mi
9:30 PM37 °FFog.1 mph87%29.92 "Hg3 mi
9:00 PM36 °FFog.6 mph93%29.92 "Hg2 mi
8:30 PM34 °FFog.No wind93%29.95 "Hg1 mi
8:00 PM36 °FFog.1 mph93%29.92 "Hg2 mi
7:30 PM37 °FFog.1 mph87%29.95 "Hg2 mi
7:00 PM39 °FFog.No wind81%29.95 "Hg2 mi
6:30 PM41 °FFog.3 mph81%29.95 "Hg3 mi
6:00 PM41 °FFog.3 mph81%29.95 "Hg3 mi
5:30 PM43 °FFog.3 mph76%29.98 "Hg3 mi
5:00 PM45 °FPartly sunny.3 mph71%29.98 "Hg4 mi
4:30 PM45 °FMore clouds than sun.10 mph76%29.98 "Hg5 mi
4:00 PM43 °FMore clouds than sun.3 mph76%30.01 "Hg5 mi
3:30 PM45 °FMore clouds than sun.3 mph76%30.01 "HgN/A
3:00 PM43 °FMore clouds than sun.6 mph76%30.01 "HgN/A
2:30 PM43 °FMore clouds than sun.3 mph76%30.01 "HgN/A
2:00 PM43 °FMore clouds than sun.1 mph76%30.04 "HgN/A
1:30 PM41 °FMostly cloudy.1 mph81%30.04 "HgN/A
1:00 PM43 °FMostly cloudy.1 mph76%30.04 "HgN/A
12:30 PM43 °FMostly cloudy.1 mph76%30.07 "HgN/A
12:00 PM45 °FMostly cloudy.No wind71%30.07 "HgN/A
11:30 AM41 °FMostly cloudy.1 mph81%30.07 "HgN/A
11:00 AM39 °FMostly cloudy.1 mph81%30.07 "HgN/A
10:30 AM37 °FMostly cloudy.1 mph87%30.07 "HgN/A
10:00 AM37 °FMostly cloudy.6 mph87%30.07 "HgN/A
9:00 AM39 °FOvercast.3 mph81%30.07 "HgN/A
8:30 AM39 °FOvercast.3 mph81%30.07 "HgN/A
8:00 AM39 °FOvercast.8 mph81%30.07 "HgN/A
7:30 AM39 °FOvercast.13 mph81%30.07 "HgN/A
7:00 AM39 °FOvercast.10 mph81%30.04 "HgN/A
6:30 AM39 °FOvercast.6 mph81%30.04 "HgN/A
6:00 AM37 °FOvercast.8 mph81%30.04 "HgN/A
5:30 AM37 °FOvercast.8 mph87%30.04 "HgN/A
5:00 AM39 °FOvercast.6 mph81%30.04 "HgN/A
4:30 AM41 °FOvercast.8 mph76%30.04 "HgN/A
4:00 AM39 °FOvercast.8 mph81%30.04 "HgN/A
3:30 AM39 °FOvercast.8 mph81%30.04 "HgN/A
3:00 AM39 °FOvercast.8 mph81%30.04 "HgN/A
Weather by CustomWeather, © 2014

See weather overviewHow to use our weather pages